Regional Weather Roundup
Issued by NWS Glasgow, MT

Home | Current Version | Previous Version | Text Only | Print | Product List | Glossary On
Versions: 1 2 3 4 5 6 7 8 9 10 11 12 13 14 15 16 17 18 19 20 21 22 23 24 25 26 27 28 29 30 31 32 33 34 35 36 37 38 39 40 41 42 43 44 45 46 47 48 49 50
000
ASUS45 KGGW 231915
RWRGGW
HOURLY REGIONAL WEATHER ROUNDUP FOR NORTHEAST MONTANA
NATIONAL WEATHER SERVICE GLASGOW MONTANA
1200 PM MST MON JAN 23 2017

NOTE: "FAIR" INDICATES FEW OR NO CLOUDS BELOW 12,000 FEET WITH NO
SIGNIFICANT WEATHER AND/OR OBSTRUCTIONS TO VISISBILITY.

NORTHEAST MONTANA


CITY           SKY/WX    TMP DP  RH WIND       PRES   REMARKS
GLASGOW        LGT SNOW  26  23  88 N6        29.76S FOG
PLENTYWOOD       N/A     21  19  92 NW9         N/A
WOLF POINT     LGT SNOW  28  23  81 NE8       29.78F
JORDAN           N/A     25  22  88 E3        29.74S
SIDNEY         CLOUDY    27  23  86 NE7       29.77F FOG
GLENDIVE       CLOUDY    24  21  88 E9        29.74F
SCOBEY           N/A     22  13  68 W7        29.75F

FORT PECK REPORTS


CITY           SKY/WX    TMP DP  RH WIND       PRES   REMARKS
FORT PECK        N/A     33  28  81 NE3         N/A
THE PINES        N/A     30  27  88 CALM        N/A

SOUTHEAST MONTANA


CITY           SKY/WX    TMP DP  RH WIND       PRES   REMARKS
BILLINGS       CLOUDY    21  19  92 CALM      29.69F FOG
MILES CITY     CLOUDY    22  18  85 NE6       29.73R
BAKER          FOG       20  18  92 SE10      29.69F VSB 1
LIVINGSTON     CLOUDY    25  18  74 N7        29.63F

CENTRAL MONTANA


CITY           SKY/WX    TMP DP  RH WIND       PRES   REMARKS
HAVRE          CLOUDY    23  20  88 NW7       29.81R
LEWISTOWN      CLOUDY    23  21  92 W9        29.70F
GREAT FALLS    FLURRIES  22  19  89 N8        29.76F
CUT BANK       CLOUDY    19  17  92 N14       29.76F
HELENA         CLOUDY    27  18  69 NW6       29.73F
BUTTE          CLOUDY    14  12  92 CALM      29.62F
BOZEMAN        CLOUDY    22  20  92 CALM      29.67F FOG

WESTERN MONTANA


CITY           SKY/WX    TMP DP  RH WIND       PRES   REMARKS
MISSOULA       CLOUDY    25  24  96 SE6       29.72S FOG
KALISPELL      NOT AVBL

NORTH DAKOTA


CITY           SKY/WX    TMP DP  RH WIND       PRES   REMARKS
WILLISTON      CLOUDY    25  20  81 N8        29.78F
DICKINSON      CLOUDY    23  20  88 CALM      29.72F
MINOT          CLOUDY    25  19  78 W16       29.77R
BISMARCK       CLOUDY    31  23  72 CALM      29.78F

SOUTHERN SASKATCHEWAN


CITY           SKY/WX    TMP DP  RH WIND       PRES   REMARKS
REGINA         CLOUDY    19  16  86 W15       29.75F
MOOSE JAW      CLOUDY    21  16  79 NW15      29.78F
ESTEVAN        CLOUDY    21  18  86 W15       29.75F
SWIFT CURRENT  FLURRIES  14  14 100 NW15      29.74F WCI  -1




USA.gov is the U.S. government's official web portal to all federal, state and local government web resources and services.